GSAT0212

Last updated on Thu Dec 15 2016 00:17:11 GMT+0000 (Coordinated Universal Time)

1 41860U 16069B 16346.12035641 .00000086 00000-0 00000+0 0 9996 2 41860 54.5797 197.6393 0002842 113.5733 246.5521 1.72058250 392

Satellite not in orbit

GSAT0212